User: anonymous   Login
Location: Unspecified
(0.0000°N, 0.0000°E)
Time: 08:06:53
(UTC+00:00)
Language:

DIAMOND GREEN - Orbit

View from above orbital plane
View from above orbital plane
View from above satellite
View from above satellite

Ground track
Ground track

The orbit data is extracted from the following two-line orbital elements,

1 42785U 17036W   17347.91248381 +.00000983 +00000-0 +47316-4 0  9996
2 42785 097.4286 045.4842 0012688 013.6240 346.5336 15.21064195026419
Epoch (UTC): 13 December 2017 21:53:58
Eccentricity: 0.0012688
inclination: 97.4286°
perigee height: 494 km
apogee height: 511 km
right ascension of ascending node: 45.4842°
argument of perigee: 13.6240°
revolutions per day: 15.21064195
mean anomaly at epoch: 346.5336°
orbit number at epoch: 2641

The dashed part of the orbit path shows where the satellite is in the earth's shadow,  

DLR